Location: Unspecified
(48.7670°N, 0.0000°E)
Time: 00:47:47
(UTC+00:00)

Vanguard 2 Rocket - Pass Details

Date: 26 June 2019
Orbit: 554 x 3326 km, 32.9° (Epoch: 19 July)

Event Time Altitude Azimuth Distance (km) Brightness Sun altitude
Rises 23:07:49 0° 251° (WSW) 4,165 10.2 -16.8°
Reaches altitude 10° 23:10:30 10° 242° (WSW) 3,509 9.7 -16.9°
Maximum altitude 23:18:44 34° 181° (S) 2,914 8.9 -17.2°
Drops below altitude 10° 23:31:41 10° 125° (SE) 5,549 10.5 -17.6°
Sets 23:37:19 0° 118° (ESE) 6,910 11.1 -17.7°
